PAKSAT-MM1

Last updated on Sat Jul 05 2025 00:02:48 GMT+0000 (Coordinated Universal Time)

1 59915U 24104A 25185.57293741 .00000168 00000+0 00000+0 0 9992 2 59915 0.0353 245.8661 0002241 204.2448 77.1191 1.00269995 4042
UTC large
Height (km)
Speed (km/s)
/
Latitude / Longitude
Inclination (degrees)
Orbital Period (minutes)
Azimuth
Elevation
Range (km)
Doppler Factor

Next 0 passes for location: London (51.5072 / 0.1276)

Sorry there are no passes over London.